Weather in Begishevo

Russia / Republic of Tatarstan     55°29′19″N   52°01′54″E
temp.,
°C
wind,
m/s
gust,
m/s
humid.,
%
clouds,
%
prec.,
mm/h
press.,
hPa
HPBL,
m
2 july, sat
sat200:00+11ne39930 0.0 1014150
03:00+10ene36935 0.0 1015103
06:00+14ne488543 0.0 1015258
09:00+18ne466610 0.0 1015663
12:00+21ne445781 0.0 10141353
15:00+21nne445560 0.0 10131712
18:00+19ne35735 0.2 1013157
21:00+14ene22805 0.2 101311
3 july, sun
sun300:00+12nne22840 0.0 101214
03:00+11ne22882 0.0 101216
06:00+15ne23790 0.0 1012177
09:00+19nne35655 0.0 1011822
12:00+22ne34528 0.0 10101892
15:00+20n487097 0.0 1010479
18:00+18n4978100 0.3 1009354
21:00+14nne5129378 0.5 1010400
4 july, mon
mon400:00+12nne4119398 0.0 1010295
03:00+9n310940 0.0 1010207
06:00+11n498950 0.0 1010392
09:00+14nne61085100 0.1 1011694
12:00+19ne79615 0.4 10111761
15:00+19ne6965100 1.3 10111482
18:00+17nne49725 0.2 1012441
21:00+12nne228728 0.2 101322
5 july, tue
tue500:00+11n22905 0.0 101413
03:00+10n228913 0.0 101516
06:00+13nne358255 0.0 1015249
09:00+17ne576068 0.0 10161018
12:00+18ne5753100 0.0 10161547
15:00+18ne565487 0.0 10171669
18:00+17e247389 0.0 1017136
21:00+12se117994 0.0 101810
6 july, wed
wed600:00+11w117983 0.0 101810
03:00+10wsw11825 0.0 101910
06:00+14wsw11735 0.0 1019126
09:00+18wsw22655 0.0 1019548
12:00+21wsw33595 0.0 10191100
15:00+22wsw33595 0.0 10181344
18:00+21wsw24740 0.0 1018134
21:00+16sw23860 0.0 101921